Time,TemperatureF,DewpointF,PressureIn,WindDirection,WindDirectionDegrees,WindSpeedMPH,WindSpeedGustMPH,Humidity,HourlyPrecipIn,Conditions,Clouds,dailyrainin,SoftwareType,DateUTC
2013-08-06 00:01:00,83.3,76.2,29.97,NE,45,1.1,1.6,79,0.00,,,0.00,WUHU216HW,2013-08-06 04:01:00,
2013-08-06 00:03:00,83.3,76.2,29.97,NE,45,0.4,1.6,79,0.00,,,0.00,WUHU216HW,2013-08-06 04:03:00,
2013-08-06 00:04:00,83.3,76.2,29.97,NNW,338,0.4,1.6,79,0.00,,,0.00,WUHU216HW,2013-08-06 04:04:00,
2013-08-06 00:09:00,83.3,76.2,29.97,North,0,0.2,2.5,79,0.00,,,0.00,WUHU216HW,2013-08-06 04:09:00,
2013-08-06 00:14:00,83.3,76.6,29.97,North,0,0.9,2.5,80,0.00,,,0.00,WUHU216HW,2013-08-06 04:14:00,
2013-08-06 00:19:00,83.3,76.6,29.97,NNW,338,0.4,0.9,80,0.00,,,0.00,WUHU216HW,2013-08-06 04:19:00,
2013-08-06 00:24:00,83.3,76.6,29.96,NNW,338,0.9,1.3,80,0.00,,,0.00,WUHU216HW,2013-08-06 04:24:00,
2013-08-06 00:30:00,83.2,76.4,29.96,NNE,23,0.2,1.6,80,0.00,,,0.00,WUHU216HW,2013-08-06 04:30:00,
2013-08-06 00:35:00,83.2,76.4,29.96,North,0,0.0,1.6,80,0.00,,,0.00,WUHU216HW,2013-08-06 04:35:00,
2013-08-06 00:40:00,83.2,76.8,29.95,North,0,0.0,0.7,81,0.00,,,0.00,WUHU216HW,2013-08-06 04:40:00,
2013-08-06 00:45:00,83.2,76.8,29.95,North,0,0.0,0.0,81,0.00,,,0.00,WUHU216HW,2013-08-06 04:45:00,
2013-08-06 00:50:00,83.2,76.8,29.95,North,0,0.0,0.0,81,0.00,,,0.00,WUHU216HW,2013-08-06 04:50:00,
2013-08-06 00:55:00,83.2,76.8,29.95,North,0,0.0,0.0,81,0.00,,,0.00,WUHU216HW,2013-08-06 04:55:00,
2013-08-06 01:00:00,83.2,76.8,29.94,North,0,0.0,0.0,81,0.00,,,0.00,WUHU216HW,2013-08-06 05:00:00,
2013-08-06 01:06:00,83.2,76.8,29.94,North,0,0.0,0.0,81,0.00,,,0.00,WUHU216HW,2013-08-06 05:06:00,
2013-08-06 01:11:00,83.0,76.6,29.94,North,0,0.0,0.0,81,0.00,,,0.00,WUHU216HW,2013-08-06 05:11:00,
2013-08-06 01:16:00,83.0,76.6,29.94,North,0,0.4,0.4,81,0.00,,,0.00,WUHU216HW,2013-08-06 05:16:00,
2013-08-06 01:21:00,83.0,76.6,29.94,North,0,0.4,0.4,81,0.00,,,0.00,WUHU216HW,2013-08-06 05:21:00,
2013-08-06 01:26:00,82.8,76.4,29.94,ESE,113,0.7,0.9,81,0.00,,,0.00,WUHU216HW,2013-08-06 05:26:00,
2013-08-06 01:31:00,82.8,76.4,29.94,ESE,113,1.1,1.1,81,0.00,,,0.00,WUHU216HW,2013-08-06 05:31:00,
2013-08-06 01:36:00,82.8,76.4,29.94,ESE,113,0.0,1.1,81,0.00,,,0.00,WUHU216HW,2013-08-06 05:36:00,
2013-08-06 01:41:00,82.6,76.6,29.94,East,90,1.1,1.1,82,0.00,,,0.00,WUHU216HW,2013-08-06 05:41:00,
2013-08-06 01:46:00,82.4,76.5,29.94,ESE,113,0.4,1.1,82,0.00,,,0.00,WUHU216HW,2013-08-06 05:46:00,
2013-08-06 01:52:00,82.4,76.5,29.94,SE,135,1.1,1.1,82,0.00,,,0.00,WUHU216HW,2013-08-06 05:52:00,
2013-08-06 01:57:00,82.4,76.5,29.94,SE,135,1.1,1.1,82,0.00,,,0.00,WUHU216HW,2013-08-06 05:57:00,
2013-08-06 02:02:00,82.3,76.3,29.94,SE,135,0.0,1.1,82,0.00,,,0.00,WUHU216HW,2013-08-06 06:02:00,
2013-08-06 02:07:00,82.3,76.3,29.94,SE,135,0.0,0.4,82,0.00,,,0.00,WUHU216HW,2013-08-06 06:07:00,
2013-08-06 02:12:00,82.3,76.3,29.93,SE,135,0.0,0.4,82,0.00,,,0.00,WUHU216HW,2013-08-06 06:12:00,
2013-08-06 02:17:00,82.3,76.3,29.93,SE,135,0.0,0.2,82,0.00,,,0.00,WUHU216HW,2013-08-06 06:17:00,
2013-08-06 02:22:00,82.1,76.2,29.93,SE,135,0.0,0.9,82,0.00,,,0.00,WUHU216HW,2013-08-06 06:22:00,
2013-08-06 02:28:00,82.1,76.2,29.92,SE,135,0.0,0.9,82,0.00,,,0.00,WUHU216HW,2013-08-06 06:28:00,
2013-08-06 02:33:00,81.9,76.0,29.92,SE,135,0.4,0.4,82,0.00,,,0.00,WUHU216HW,2013-08-06 06:33:00,
2013-08-06 02:38:00,81.9,76.0,29.91,SSE,158,0.4,1.1,82,0.00,,,0.00,WUHU216HW,2013-08-06 06:38:00,
2013-08-06 02:43:00,81.9,76.0,29.91,SSE,158,0.4,1.1,82,0.00,,,0.00,WUHU216HW,2013-08-06 06:43:00,
2013-08-06 02:48:00,81.9,76.0,29.91,SE,135,0.9,1.1,82,0.00,,,0.00,WUHU216HW,2013-08-06 06:48:00,
2013-08-06 02:53:00,81.9,76.0,29.91,ESE,113,0.4,1.1,82,0.00,,,0.00,WUHU216HW,2013-08-06 06:53:00,
2013-08-06 02:58:00,81.9,76.0,29.91,East,90,1.3,1.3,82,0.00,,,0.00,WUHU216HW,2013-08-06 06:58:00,
2013-08-06 03:03:00,81.9,76.0,29.91,ESE,113,0.2,1.3,82,0.00,,,0.00,WUHU216HW,2013-08-06 07:03:00,
2013-08-06 03:09:00,81.9,76.0,29.91,SE,135,1.3,1.3,82,0.00,,,0.00,WUHU216HW,2013-08-06 07:09:00,
2013-08-06 03:14:00,81.7,75.8,29.91,SSE,158,0.0,1.3,82,0.00,,,0.00,WUHU216HW,2013-08-06 07:14:00,
2013-08-06 03:19:00,81.7,75.8,29.91,SSE,158,1.6,1.6,82,0.00,,,0.00,WUHU216HW,2013-08-06 07:19:00,
2013-08-06 03:25:00,81.7,75.8,29.90,SSE,158,0.0,1.6,82,0.00,,,0.00,WUHU216HW,2013-08-06 07:25:00,
2013-08-06 03:30:00,81.7,75.8,29.90,SSE,158,0.0,0.4,82,0.00,,,0.00,WUHU216HW,2013-08-06 07:30:00,
2013-08-06 03:35:00,81.5,75.6,29.90,SSE,158,0.0,0.4,82,0.00,,,0.00,WUHU216HW,2013-08-06 07:35:00,
2013-08-06 03:40:00,81.5,75.9,29.90,SSE,158,0.0,0.4,83,0.00,,,0.00,WUHU216HW,2013-08-06 07:40:00,
2013-08-06 03:45:00,81.5,75.6,29.89,SSE,158,0.0,0.0,82,0.00,,,0.00,WUHU216HW,2013-08-06 07:45:00,
2013-08-06 03:51:00,81.5,75.9,29.89,SSE,158,0.0,0.0,83,0.00,,,0.00,WUHU216HW,2013-08-06 07:51:00,
2013-08-06 03:56:00,81.5,75.9,29.89,SSE,158,0.0,0.0,83,0.00,,,0.00,WUHU216HW,2013-08-06 07:56:00,
2013-08-06 04:01:00,81.4,75.7,29.89,SSE,158,0.0,0.0,83,0.00,,,0.00,WUHU216HW,2013-08-06 08:01:00,
2013-08-06 04:06:00,81.4,75.7,29.89,SE,135,1.1,1.1,83,0.00,,,0.00,WUHU216HW,2013-08-06 08:06:00,
2013-08-06 04:11:00,81.2,75.3,29.89,ESE,113,0.2,1.1,82,0.00,,,0.00,WUHU216HW,2013-08-06 08:11:00,
2013-08-06 04:16:00,81.2,75.3,29.89,SSE,158,0.4,0.4,82,0.00,,,0.00,WUHU216HW,2013-08-06 08:16:00,
2013-08-06 04:21:00,81.0,75.1,29.89,SSE,158,0.2,0.9,82,0.00,,,0.00,WUHU216HW,2013-08-06 08:21:00,
2013-08-06 04:26:00,81.0,75.1,29.89,SE,135,0.0,0.9,82,0.00,,,0.00,WUHU216HW,2013-08-06 08:26:00,
2013-08-06 04:31:00,81.0,75.1,29.89,SSE,158,0.7,0.7,82,0.00,,,0.00,WUHU216HW,2013-08-06 08:31:00,
2013-08-06 04:36:00,81.0,75.1,29.89,SSE,158,0.0,0.7,82,0.00,,,0.00,WUHU216HW,2013-08-06 08:36:00,
2013-08-06 04:41:00,81.0,75.1,29.89,SSE,158,0.4,0.4,82,0.00,,,0.00,WUHU216HW,2013-08-06 08:41:00,
2013-08-06 04:46:00,81.0,75.1,29.89,SSE,158,0.0,0.4,82,0.00,,,0.00,WUHU216HW,2013-08-06 08:46:00,
2013-08-06 04:51:00,81.0,75.1,29.89,SSE,158,0.4,0.4,82,0.00,,,0.00,WUHU216HW,2013-08-06 08:51:00,
2013-08-06 04:57:00,81.0,75.1,29.89,SE,135,0.4,0.7,82,0.00,,,0.00,WUHU216HW,2013-08-06 08:57:00,
2013-08-06 05:02:00,81.0,75.1,29.89,SE,135,0.0,0.7,82,0.00,,,0.00,WUHU216HW,2013-08-06 09:02:00,
2013-08-06 05:07:00,81.0,75.1,29.89,SE,135,0.0,0.0,82,0.00,,,0.00,WUHU216HW,2013-08-06 09:07:00,
2013-08-06 05:12:00,80.8,74.9,29.89,SE,135,0.0,0.0,82,0.00,,,0.00,WUHU216HW,2013-08-06 09:12:00,
2013-08-06 05:17:00,80.8,74.9,29.89,SE,135,0.0,0.7,82,0.00,,,0.00,WUHU216HW,2013-08-06 09:17:00,
2013-08-06 05:22:00,80.6,74.7,29.89,ESE,113,0.0,0.7,82,0.00,,,0.00,WUHU216HW,2013-08-06 09:22:00,
2013-08-06 05:27:00,80.6,74.7,29.89,ESE,113,0.0,0.4,82,0.00,,,0.00,WUHU216HW,2013-08-06 09:27:00,
2013-08-06 05:32:00,80.6,74.7,29.89,ESE,113,0.2,0.4,82,0.00,,,0.00,WUHU216HW,2013-08-06 09:32:00,
2013-08-06 05:37:00,80.6,74.7,29.89,ESE,113,0.4,0.4,82,0.00,,,0.00,WUHU216HW,2013-08-06 09:37:00,
2013-08-06 05:42:00,80.6,74.7,29.89,ESE,113,0.2,0.4,82,0.00,,,0.00,WUHU216HW,2013-08-06 09:42:00,
2013-08-06 05:47:00,80.6,74.7,29.89,ESE,113,0.0,0.4,82,0.00,,,0.00,WUHU216HW,2013-08-06 09:47:00,
2013-08-06 05:52:00,80.5,74.5,29.89,SE,135,0.2,0.7,82,0.00,,,0.00,WUHU216HW,2013-08-06 09:52:00,
2013-08-06 05:57:00,80.5,74.5,29.89,SE,135,0.4,0.9,82,0.00,,,0.00,WUHU216HW,2013-08-06 09:57:00,
2013-08-06 06:03:00,80.5,74.5,29.89,SE,135,0.4,1.1,82,0.00,,,0.00,WUHU216HW,2013-08-06 10:03:00,
2013-08-06 06:08:00,80.5,74.5,29.90,SE,135,0.0,1.1,82,0.00,,,0.00,WUHU216HW,2013-08-06 10:08:00,
2013-08-06 06:09:00,80.5,74.5,29.90,SE,135,0.0,1.1,82,0.00,,,0.00,WUHU216HW,2013-08-06 10:09:00,
2013-08-06 06:13:00,80.5,74.5,29.90,SE,135,0.0,1.1,82,0.00,,,0.00,WUHU216HW,2013-08-06 10:13:00,
2013-08-06 06:14:00,80.5,74.5,29.90,SE,135,0.0,0.2,82,0.00,,,0.00,WUHU216HW,2013-08-06 10:14:00,
2013-08-06 06:18:00,80.3,74.4,29.90,SE,135,0.0,0.0,82,0.00,,,0.00,WUHU216HW,2013-08-06 10:18:00,
2013-08-06 06:19:00,80.3,74.4,29.89,SW,225,0.2,0.2,82,0.00,,,0.00,WUHU216HW,2013-08-06 10:19:00,
2013-08-06 06:23:00,80.3,74.4,29.90,West,270,0.9,0.9,82,0.00,,,0.00,WUHU216HW,2013-08-06 10:23:00,
2013-08-06 06:24:00,80.3,74.4,29.90,WSW,248,0.9,0.9,82,0.00,,,0.00,WUHU216HW,2013-08-06 10:24:00,
2013-08-06 06:28:00,80.3,74.4,29.90,WSW,248,0.0,0.9,82,0.00,,,0.00,WUHU216HW,2013-08-06 10:28:00,
2013-08-06 06:29:00,80.1,74.2,29.90,WSW,248,0.2,0.9,82,0.00,,,0.00,WUHU216HW,2013-08-06 10:29:00,
2013-08-06 06:33:00,80.1,74.2,29.90,WSW,248,0.0,0.9,82,0.00,,,0.00,WUHU216HW,2013-08-06 10:33:00,
2013-08-06 06:34:00,80.3,74.4,29.90,WSW,248,0.0,0.4,82,0.00,,,0.00,WUHU216HW,2013-08-06 10:34:00,
2013-08-06 06:38:00,80.1,74.2,29.89,WSW,248,0.0,0.4,82,0.00,,,0.00,WUHU216HW,2013-08-06 10:38:00,
2013-08-06 06:39:00,80.1,74.2,29.89,WSW,248,0.0,0.4,82,0.00,,,0.00,WUHU216HW,2013-08-06 10:39:00,
2013-08-06 06:43:00,80.3,74.4,29.90,WSW,248,0.0,0.0,82,0.00,,,0.00,WUHU216HW,2013-08-06 10:43:00,
2013-08-06 06:44:00,80.3,74.4,29.89,WSW,248,0.4,0.4,82,0.00,,,0.00,WUHU216HW,2013-08-06 10:44:00,
2013-08-06 06:48:00,80.3,74.4,29.90,WSW,248,0.0,0.4,82,0.00,,,0.00,WUHU216HW,2013-08-06 10:48:00,
2013-08-06 06:49:00,80.3,74.4,29.90,WSW,248,0.0,0.4,82,0.00,,,0.00,WUHU216HW,2013-08-06 10:49:00,
2013-08-06 06:53:00,80.3,74.4,29.90,WSW,248,0.0,0.4,82,0.00,,,0.00,WUHU216HW,2013-08-06 10:53:00,
2013-08-06 06:54:00,80.3,74.4,29.90,WSW,248,0.0,0.0,82,0.00,,,0.00,WUHU216HW,2013-08-06 10:54:00,
2013-08-06 06:58:00,80.3,74.4,29.90,WSW,248,0.0,0.0,82,0.00,,,0.00,WUHU216HW,2013-08-06 10:58:00,
2013-08-06 07:03:00,80.3,74.4,29.90,WSW,248,0.0,0.0,82,0.00,,,0.00,WUHU216HW,2013-08-06 11:03:00,
2013-08-06 07:08:00,80.3,74.4,29.90,WSW,248,0.0,0.0,82,0.00,,,0.00,WUHU216HW,2013-08-06 11:08:00,
2013-08-06 07:13:00,80.3,74.4,29.91,WSW,248,0.0,0.0,82,0.00,,,0.00,WUHU216HW,2013-08-06 11:13:00,
2013-08-06 07:18:00,80.3,74.4,29.91,WSW,248,0.0,0.0,82,0.00,,,0.00,WUHU216HW,2013-08-06 11:18:00,
2013-08-06 07:23:00,80.3,74.4,29.91,WSW,248,0.0,0.0,82,0.00,,,0.00,WUHU216HW,2013-08-06 11:23:00,
2013-08-06 07:29:00,80.1,74.2,29.92,SSE,158,0.0,0.0,82,0.00,,,0.00,WUHU216HW,2013-08-06 11:29:00,
2013-08-06 07:34:00,80.1,74.2,29.92,SE,135,0.7,0.7,82,0.00,,,0.00,WUHU216HW,2013-08-06 11:34:00,
2013-08-06 07:39:00,80.3,74.4,29.92,SE,135,0.7,0.7,82,0.00,,,0.00,WUHU216HW,2013-08-06 11:39:00,
2013-08-06 07:44:00,80.3,74.4,29.92,SE,135,0.0,0.7,82,0.00,,,0.00,WUHU216HW,2013-08-06 11:44:00,
2013-08-06 07:49:00,80.3,74.4,29.92,SE,135,0.0,0.7,82,0.00,,,0.00,WUHU216HW,2013-08-06 11:49:00,
2013-08-06 07:54:00,80.5,74.5,29.92,SE,135,0.4,0.7,82,0.00,,,0.00,WUHU216HW,2013-08-06 11:54:00,
2013-08-06 07:59:00,80.3,74.4,29.92,SE,135,0.0,0.7,82,0.00,,,0.00,WUHU216HW,2013-08-06 11:59:00,
2013-08-06 08:04:00,80.3,74.4,29.92,SE,135,0.0,0.4,82,0.00,,,0.00,WUHU216HW,2013-08-06 12:04:00,
2013-08-06 08:09:00,80.3,74.4,29.92,SE,135,0.4,0.4,82,0.00,,,0.00,WUHU216HW,2013-08-06 12:09:00,
2013-08-06 08:14:00,80.3,74.4,29.93,SE,135,0.0,0.4,82,0.00,,,0.00,WUHU216HW,2013-08-06 12:14:00,
2013-08-06 08:20:00,80.3,74.4,29.93,SE,135,0.2,0.4,82,0.00,,,0.00,WUHU216HW,2013-08-06 12:20:00,
2013-08-06 08:25:00,80.5,74.5,29.94,SE,135,0.2,0.9,82,0.00,,,0.00,WUHU216HW,2013-08-06 12:25:00,
2013-08-06 08:30:00,80.6,74.7,29.93,East,90,0.2,0.9,82,0.00,,,0.00,WUHU216HW,2013-08-06 12:30:00,
2013-08-06 08:35:00,80.6,74.4,29.93,ESE,113,0.2,0.7,81,0.00,,,0.00,WUHU216HW,2013-08-06 12:35:00,
2013-08-06 08:40:00,81.0,74.7,29.94,ESE,113,0.0,0.4,81,0.00,,,0.00,WUHU216HW,2013-08-06 12:40:00,
2013-08-06 08:45:00,81.0,74.7,29.94,ESE,113,1.6,1.6,81,0.00,,,0.00,WUHU216HW,2013-08-06 12:45:00,
2013-08-06 08:50:00,81.4,75.4,29.94,NNW,338,0.4,1.6,82,0.00,,,0.00,WUHU216HW,2013-08-06 12:50:00,
2013-08-06 08:55:00,81.7,75.8,29.94,ENE,68,0.4,1.1,82,0.00,,,0.00,WUHU216HW,2013-08-06 12:55:00,
2013-08-06 09:00:00,81.7,75.8,29.94,NNE,23,0.7,1.1,82,0.00,,,0.00,WUHU216HW,2013-08-06 13:00:00,
2013-08-06 09:05:00,81.9,76.0,29.94,WNW,293,0.4,1.1,82,0.00,,,0.00,WUHU216HW,2013-08-06 13:05:00,
2013-08-06 09:10:00,82.1,76.2,29.94,NNE,23,1.3,1.3,82,0.00,,,0.00,WUHU216HW,2013-08-06 13:10:00,
2013-08-06 09:15:00,82.4,76.5,29.94,ESE,113,1.1,1.8,82,0.00,,,0.00,WUHU216HW,2013-08-06 13:15:00,
2013-08-06 09:20:00,82.8,76.4,29.94,ENE,68,0.7,1.8,81,0.00,,,0.00,WUHU216HW,2013-08-06 13:20:00,
2013-08-06 09:25:00,83.2,76.8,29.94,SE,135,0.7,1.6,81,0.00,,,0.00,WUHU216HW,2013-08-06 13:25:00,
2013-08-06 09:30:00,83.5,77.1,29.94,NNW,338,0.2,1.8,81,0.00,,,0.00,WUHU216HW,2013-08-06 13:30:00,
2013-08-06 09:35:00,83.7,77.3,29.94,NE,45,0.2,1.8,81,0.00,,,0.00,WUHU216HW,2013-08-06 13:35:00,
2013-08-06 09:40:00,84.1,77.2,29.94,ESE,113,0.4,2.0,80,0.00,,,0.00,WUHU216HW,2013-08-06 13:40:00,
2013-08-06 09:46:00,84.2,77.4,29.94,ESE,113,1.3,2.0,80,0.00,,,0.00,WUHU216HW,2013-08-06 13:46:00,
2013-08-06 09:51:00,85.0,77.8,29.94,NE,45,0.0,1.8,79,0.00,,,0.00,WUHU216HW,2013-08-06 13:51:00,
2013-08-06 09:56:00,85.3,78.1,29.94,NE,45,1.1,1.1,79,0.00,,,0.00,WUHU216HW,2013-08-06 13:56:00,
2013-08-06 10:01:00,85.5,78.3,29.94,NNW,338,0.9,1.8,79,0.00,,,0.00,WUHU216HW,2013-08-06 14:01:00,
2013-08-06 10:06:00,85.7,78.0,29.94,WNW,293,1.1,1.8,78,0.00,,,0.00,WUHU216HW,2013-08-06 14:06:00,
2013-08-06 10:11:00,86.2,78.6,29.95,East,90,0.9,1.8,78,0.00,,,0.00,WUHU216HW,2013-08-06 14:11:00,
2013-08-06 10:16:00,86.4,77.9,29.95,East,90,0.4,1.1,76,0.00,,,0.00,WUHU216HW,2013-08-06 14:16:00,
2013-08-06 10:21:00,86.6,78.1,29.95,NW,315,1.3,3.4,76,0.00,,,0.00,WUHU216HW,2013-08-06 14:21:00,
2013-08-06 10:26:00,86.8,78.3,29.95,ENE,68,0.4,3.4,76,0.00,,,0.00,WUHU216HW,2013-08-06 14:26:00,
2013-08-06 10:31:00,87.1,78.7,29.94,SSW,203,0.2,2.5,76,0.00,,,0.00,WUHU216HW,2013-08-06 14:31:00,
2013-08-06 10:36:00,87.3,78.4,29.94,NE,45,1.8,2.5,75,0.00,,,0.00,WUHU216HW,2013-08-06 14:36:00,
2013-08-06 10:41:00,87.5,77.8,29.94,NNE,23,0.9,4.0,73,0.00,,,0.00,WUHU216HW,2013-08-06 14:41:00,
2013-08-06 10:46:00,87.5,77.8,29.95,North,0,0.2,4.0,73,0.00,,,0.00,WUHU216HW,2013-08-06 14:46:00,
2013-08-06 10:51:00,87.8,78.1,29.95,SE,135,0.4,1.8,73,0.00,,,0.00,WUHU216HW,2013-08-06 14:51:00,
2013-08-06 10:56:00,88.6,78.4,29.95,East,90,1.3,2.7,72,0.00,,,0.00,WUHU216HW,2013-08-06 14:56:00,
2013-08-06 11:01:00,88.9,78.8,29.95,ESE,113,2.5,2.7,72,0.00,,,0.00,WUHU216HW,2013-08-06 15:01:00,
2013-08-06 11:06:00,89.1,78.9,29.95,East,90,1.3,2.5,72,0.00,,,0.00,WUHU216HW,2013-08-06 15:06:00,
2013-08-06 11:12:00,89.3,77.9,29.95,NNE,23,0.4,2.7,69,0.00,,,0.00,WUHU216HW,2013-08-06 15:12:00,
2013-08-06 11:17:00,89.5,78.0,29.95,ENE,68,2.9,2.9,69,0.00,,,0.00,WUHU216HW,2013-08-06 15:17:00,
2013-08-06 11:22:00,89.6,77.8,29.95,NNW,338,1.6,3.1,68,0.00,,,0.00,WUHU216HW,2013-08-06 15:22:00,
2013-08-06 11:27:00,89.8,78.4,29.95,NNW,338,0.9,3.1,69,0.00,,,0.00,WUHU216HW,2013-08-06 15:27:00,
2013-08-06 11:32:00,90.2,78.7,29.95,NW,315,0.4,3.4,69,0.00,,,0.00,WUHU216HW,2013-08-06 15:32:00,
2013-08-06 11:37:00,90.7,79.7,29.95,SW,225,0.2,3.4,70,0.00,,,0.00,WUHU216HW,2013-08-06 15:37:00,
2013-08-06 11:42:00,91.4,80.3,29.94,WNW,293,1.8,3.1,70,0.00,,,0.00,WUHU216HW,2013-08-06 15:42:00,
2013-08-06 11:47:00,91.8,80.2,29.94,NNW,338,3.4,3.4,69,0.00,,,0.00,WUHU216HW,2013-08-06 15:47:00,
2013-08-06 11:52:00,91.6,79.6,29.95,NNW,338,0.9,3.4,68,0.00,,,0.00,WUHU216HW,2013-08-06 15:52:00,
2013-08-06 11:57:00,91.4,79.8,29.95,SSW,203,0.2,1.8,69,0.00,,,0.00,WUHU216HW,2013-08-06 15:57:00,
2013-08-06 12:02:00,91.3,79.2,29.95,WSW,248,2.0,2.0,68,0.00,,,0.00,WUHU216HW,2013-08-06 16:02:00,
2013-08-06 12:07:00,91.1,79.0,29.94,West,270,2.0,2.5,68,0.00,,,0.00,WUHU216HW,2013-08-06 16:07:00,
2013-08-06 12:12:00,91.1,79.5,29.94,NNW,338,1.1,2.5,69,0.00,,,0.00,WUHU216HW,2013-08-06 16:12:00,
2013-08-06 12:18:00,91.1,79.9,29.94,NNW,338,4.0,4.0,70,0.00,,,0.00,WUHU216HW,2013-08-06 16:18:00,
2013-08-06 12:23:00,90.4,79.8,29.94,North,0,3.1,5.6,71,0.02,,,0.01,WUHU216HW,2013-08-06 16:23:00,
2013-08-06 12:28:00,88.9,79.6,29.94,NNW,338,2.5,5.6,74,0.02,,,0.02,WUHU216HW,2013-08-06 16:28:00,
2013-08-06 12:33:00,87.1,78.7,29.94,NE,45,1.3,3.4,76,0.03,,,0.03,WUHU216HW,2013-08-06 16:33:00,
2013-08-06 12:38:00,86.4,77.9,29.94,NNW,338,1.8,4.3,76,0.03,,,0.03,WUHU216HW,2013-08-06 16:38:00,
2013-08-06 12:43:00,86.4,78.4,29.94,NW,315,5.6,5.6,77,0.03,,,0.03,WUHU216HW,2013-08-06 16:43:00,
2013-08-06 12:48:00,86.8,79.1,29.94,NNW,338,3.1,5.6,78,0.03,,,0.03,WUHU216HW,2013-08-06 16:48:00,
2013-08-06 12:53:00,86.9,78.8,29.93,NNW,338,1.6,4.7,77,0.03,,,0.03,WUHU216HW,2013-08-06 16:53:00,
2013-08-06 12:58:00,86.9,78.8,29.93,NNW,338,9.2,9.2,77,0.03,,,0.03,WUHU216HW,2013-08-06 16:58:00,
2013-08-06 13:03:00,87.3,78.9,29.93,North,0,4.0,9.2,76,0.03,,,0.03,WUHU216HW,2013-08-06 17:03:00,
2013-08-06 13:08:00,87.7,79.2,29.94,NNW,338,2.7,6.7,76,0.03,,,0.03,WUHU216HW,2013-08-06 17:08:00,
2013-08-06 13:13:00,88.2,79.3,29.93,NNW,338,4.7,6.7,75,0.03,,,0.03,WUHU216HW,2013-08-06 17:13:00,
2013-08-06 13:18:00,88.4,79.0,29.93,NNW,338,6.9,8.5,74,0.03,,,0.03,WUHU216HW,2013-08-06 17:18:00,
2013-08-06 13:23:00,88.2,79.3,29.93,NNW,338,6.5,8.5,75,0.01,,,0.03,WUHU216HW,2013-08-06 17:23:00,
2013-08-06 13:27:00,87.8,78.5,29.94,NNW,338,7.6,7.8,74,0.00,,,0.03,WUHU216HW,2013-08-06 17:27:00,
2013-08-06 13:32:00,87.3,78.4,29.94,NW,315,2.2,7.8,75,0.00,,,0.03,WUHU216HW,2013-08-06 17:32:00,
2013-08-06 13:37:00,87.1,78.2,29.94,NW,315,2.7,6.0,75,0.00,,,0.03,WUHU216HW,2013-08-06 17:37:00,
2013-08-06 13:42:00,87.1,78.2,29.94,NW,315,2.9,4.0,75,0.00,,,0.03,WUHU216HW,2013-08-06 17:42:00,
2013-08-06 13:47:00,87.3,78.4,29.94,NNW,338,3.4,4.3,75,0.00,,,0.03,WUHU216HW,2013-08-06 17:47:00,
2013-08-06 13:52:00,87.5,78.6,29.93,WNW,293,2.0,4.3,75,0.00,,,0.03,WUHU216HW,2013-08-06 17:52:00,
2013-08-06 13:57:00,87.5,78.6,29.93,NW,315,3.4,4.0,75,0.00,,,0.03,WUHU216HW,2013-08-06 17:57:00,
2013-08-06 14:02:00,87.5,78.2,29.93,NNW,338,2.2,4.7,74,0.00,,,0.03,WUHU216HW,2013-08-06 18:02:00,
2013-08-06 14:08:00,87.7,78.4,29.93,NNW,338,2.5,4.7,74,0.00,,,0.03,WUHU216HW,2013-08-06 18:08:00,
2013-08-06 14:13:00,87.8,78.1,29.93,NNW,338,1.6,2.7,73,0.00,,,0.03,WUHU216HW,2013-08-06 18:13:00,
2013-08-06 14:18:00,88.2,78.0,29.93,NNW,338,2.7,3.4,72,0.00,,,0.03,WUHU216HW,2013-08-06 18:18:00,
2013-08-06 14:23:00,88.6,78.4,29.93,NW,315,1.8,3.4,72,0.00,,,0.03,WUHU216HW,2013-08-06 18:23:00,
2013-08-06 14:28:00,88.7,78.2,29.93,WNW,293,3.1,3.1,71,0.00,,,0.03,WUHU216HW,2013-08-06 18:28:00,
2013-08-06 14:33:00,89.1,78.9,29.92,ESE,113,1.8,3.1,72,0.00,,,0.03,WUHU216HW,2013-08-06 18:33:00,
2013-08-06 14:38:00,89.5,78.5,29.92,SSW,203,1.3,2.5,70,0.00,,,0.03,WUHU216HW,2013-08-06 18:38:00,
2013-08-06 14:43:00,90.0,79.4,29.92,North,0,0.0,2.2,71,0.00,,,0.03,WUHU216HW,2013-08-06 18:43:00,
2013-08-06 14:48:00,90.4,79.3,29.92,WSW,248,0.7,1.6,70,0.00,,,0.03,WUHU216HW,2013-08-06 18:48:00,
2013-08-06 14:53:00,90.9,78.8,29.92,NW,315,0.2,2.0,68,0.00,,,0.03,WUHU216HW,2013-08-06 18:53:00,
2013-08-06 14:58:00,90.7,78.2,29.92,ESE,113,0.4,2.0,67,0.00,,,0.03,WUHU216HW,2013-08-06 18:58:00,
2013-08-06 15:03:00,90.5,78.0,29.92,West,270,0.7,1.8,67,0.00,,,0.03,WUHU216HW,2013-08-06 19:03:00,
2013-08-06 15:08:00,90.7,78.7,29.91,SW,225,0.4,1.3,68,0.00,,,0.03,WUHU216HW,2013-08-06 19:08:00,
2013-08-06 15:13:00,90.9,78.8,29.91,NNW,338,1.6,2.9,68,0.00,,,0.03,WUHU216HW,2013-08-06 19:13:00,
2013-08-06 15:18:00,91.1,79.5,29.91,SSE,158,0.4,2.9,69,0.00,,,0.03,WUHU216HW,2013-08-06 19:18:00,
2013-08-06 15:23:00,91.3,79.7,29.91,South,180,1.6,1.6,69,0.00,,,0.03,WUHU216HW,2013-08-06 19:23:00,
2013-08-06 15:28:00,91.6,80.0,29.91,South,180,2.9,2.9,69,0.00,,,0.03,WUHU216HW,2013-08-06 19:28:00,
2013-08-06 15:34:00,92.5,80.9,29.91,ESE,113,1.3,3.4,69,0.00,,,0.03,WUHU216HW,2013-08-06 19:34:00,
2013-08-06 15:39:00,92.9,81.7,29.90,SSW,203,0.4,3.6,70,0.00,,,0.03,WUHU216HW,2013-08-06 19:39:00,
2013-08-06 15:44:00,93.2,82.1,29.90,ESE,113,0.9,3.6,70,0.00,,,0.03,WUHU216HW,2013-08-06 19:44:00,
2013-08-06 15:49:00,93.2,81.6,29.90,WSW,248,0.4,4.0,69,0.00,,,0.03,WUHU216HW,2013-08-06 19:49:00,
2013-08-06 15:54:00,93.4,80.8,29.89,SSW,203,1.8,4.0,67,0.00,,,0.03,WUHU216HW,2013-08-06 19:54:00,
2013-08-06 15:59:00,93.1,80.0,29.89,WSW,248,1.1,3.6,66,0.00,,,0.03,WUHU216HW,2013-08-06 19:59:00,
2013-08-06 16:04:00,92.9,79.8,29.89,SSE,158,3.1,3.6,66,0.00,,,0.03,WUHU216HW,2013-08-06 20:04:00,
2013-08-06 16:09:00,92.5,79.5,29.89,WSW,248,3.1,3.4,66,0.00,,,0.03,WUHU216HW,2013-08-06 20:09:00,
2013-08-06 16:14:00,92.5,79.5,29.89,SSW,203,2.0,4.7,66,0.00,,,0.03,WUHU216HW,2013-08-06 20:14:00,
2013-08-06 16:20:00,92.9,80.3,29.89,SW,225,3.1,4.7,67,0.00,,,0.03,WUHU216HW,2013-08-06 20:20:00,
2013-08-06 16:25:00,92.9,79.4,29.89,WNW,293,0.9,3.1,65,0.00,,,0.03,WUHU216HW,2013-08-06 20:25:00,
2013-08-06 16:30:00,92.9,79.8,29.89,SSW,203,2.5,2.5,66,0.00,,,0.03,WUHU216HW,2013-08-06 20:30:00,
2013-08-06 16:32:00,93.1,80.0,29.89,South,180,1.1,2.5,66,0.00,,,0.03,WUHU216HW,2013-08-06 20:32:00,
2013-08-06 16:37:00,93.6,80.6,29.89,WSW,248,2.5,2.5,66,0.00,,,0.03,WUHU216HW,2013-08-06 20:37:00,
2013-08-06 16:42:00,93.4,80.4,29.89,SSE,158,1.6,3.1,66,0.00,,,0.03,WUHU216HW,2013-08-06 20:42:00,
2013-08-06 16:47:00,93.6,80.1,29.89,NW,315,3.1,3.1,65,0.00,,,0.03,WUHU216HW,2013-08-06 20:47:00,
2013-08-06 16:52:00,92.9,79.8,29.89,South,180,1.6,6.3,66,0.00,,,0.03,WUHU216HW,2013-08-06 20:52:00,
2013-08-06 16:57:00,92.5,79.5,29.89,East,90,3.8,6.3,66,0.00,,,0.03,WUHU216HW,2013-08-06 20:57:00,
2013-08-06 17:02:00,91.8,78.8,29.89,SSW,203,0.4,3.8,66,0.00,,,0.03,WUHU216HW,2013-08-06 21:02:00,
2013-08-06 17:08:00,91.4,78.8,29.89,SSW,203,0.2,3.6,67,0.00,,,0.03,WUHU216HW,2013-08-06 21:08:00,
2013-08-06 17:13:00,91.3,78.8,29.89,WNW,293,0.4,1.3,67,0.00,,,0.03,WUHU216HW,2013-08-06 21:13:00,
2013-08-06 17:18:00,91.1,78.6,29.89,South,180,1.3,3.1,67,0.00,,,0.03,WUHU216HW,2013-08-06 21:18:00,
2013-08-06 17:23:00,90.7,78.7,29.89,WSW,248,1.1,3.1,68,0.00,,,0.03,WUHU216HW,2013-08-06 21:23:00,
2013-08-06 17:28:00,90.5,78.6,29.88,South,180,0.7,2.2,68,0.00,,,0.03,WUHU216HW,2013-08-06 21:28:00,
2013-08-06 17:33:00,90.4,78.4,29.88,SW,225,1.3,2.5,68,0.00,,,0.03,WUHU216HW,2013-08-06 21:33:00,
2013-08-06 17:38:00,90.2,78.2,29.89,WSW,248,2.9,2.9,68,0.00,,,0.03,WUHU216HW,2013-08-06 21:38:00,
2013-08-06 17:44:00,90.0,78.5,29.89,West,270,0.7,2.9,69,0.00,,,0.03,WUHU216HW,2013-08-06 21:44:00,
2013-08-06 17:49:00,89.8,78.4,29.88,WSW,248,0.4,2.5,69,0.00,,,0.03,WUHU216HW,2013-08-06 21:49:00,
2013-08-06 17:54:00,89.6,78.2,29.88,West,270,1.6,2.0,69,0.00,,,0.03,WUHU216HW,2013-08-06 21:54:00,
2013-08-06 17:59:00,89.6,78.2,29.88,SSW,203,0.7,2.0,69,0.00,,,0.03,WUHU216HW,2013-08-06 21:59:00,
2013-08-06 18:04:00,89.3,77.9,29.88,WSW,248,1.1,2.0,69,0.00,,,0.03,WUHU216HW,2013-08-06 22:04:00,
2013-08-06 18:09:00,89.1,77.7,29.88,West,270,1.1,1.6,69,0.00,,,0.03,WUHU216HW,2013-08-06 22:09:00,
2013-08-06 18:14:00,88.9,77.5,29.88,WNW,293,0.9,2.2,69,0.00,,,0.03,WUHU216HW,2013-08-06 22:14:00,
2013-08-06 18:19:00,88.7,77.8,29.89,WSW,248,0.4,2.2,70,0.00,,,0.03,WUHU216HW,2013-08-06 22:19:00,
2013-08-06 18:24:00,88.6,77.6,29.89,West,270,1.1,1.3,70,0.00,,,0.03,WUHU216HW,2013-08-06 22:24:00,
2013-08-06 18:30:00,88.4,77.4,29.88,WSW,248,1.8,1.8,70,0.00,,,0.03,WUHU216HW,2013-08-06 22:30:00,
2013-08-06 18:35:00,88.2,77.7,29.89,WSW,248,1.3,1.8,71,0.00,,,0.03,WUHU216HW,2013-08-06 22:35:00,
2013-08-06 18:40:00,88.2,77.7,29.89,West,270,0.0,1.6,71,0.00,,,0.03,WUHU216HW,2013-08-06 22:40:00,
2013-08-06 18:45:00,88.2,77.7,29.90,NW,315,1.1,1.1,71,0.00,,,0.03,WUHU216HW,2013-08-06 22:45:00,
2013-08-06 18:50:00,88.0,77.5,29.90,WSW,248,0.0,1.1,71,0.00,,,0.03,WUHU216HW,2013-08-06 22:50:00,
2013-08-06 18:55:00,87.8,77.7,29.90,West,270,0.0,1.6,72,0.00,,,0.03,WUHU216HW,2013-08-06 22:55:00,
2013-08-06 19:00:00,87.8,77.7,29.89,West,270,0.0,1.8,72,0.00,,,0.03,WUHU216HW,2013-08-06 23:00:00,
2013-08-06 19:05:00,87.7,77.5,29.89,NW,315,0.4,2.2,72,0.00,,,0.03,WUHU216HW,2013-08-06 23:05:00,
2013-08-06 19:10:00,87.5,77.4,29.89,NW,315,1.1,2.2,72,0.00,,,0.03,WUHU216HW,2013-08-06 23:10:00,
2013-08-06 19:15:00,87.5,77.4,29.89,NW,315,1.6,1.8,72,0.00,,,0.03,WUHU216HW,2013-08-06 23:15:00,
2013-08-06 19:20:00,87.5,77.4,29.89,NW,315,1.8,1.8,72,0.00,,,0.03,WUHU216HW,2013-08-06 23:20:00,
2013-08-06 19:26:00,87.3,77.6,29.89,NNW,338,2.0,2.0,73,0.00,,,0.03,WUHU216HW,2013-08-06 23:26:00,
2013-08-06 19:31:00,87.3,77.6,29.90,West,270,0.9,3.4,73,0.00,,,0.03,WUHU216HW,2013-08-06 23:31:00,
2013-08-06 19:36:00,87.1,77.4,29.89,West,270,1.6,3.4,73,0.00,,,0.03,WUHU216HW,2013-08-06 23:36:00,
2013-08-06 19:41:00,87.1,77.4,29.89,WSW,248,1.3,1.6,73,0.00,,,0.03,WUHU216HW,2013-08-06 23:41:00,
2013-08-06 19:46:00,87.1,77.9,29.90,WSW,248,1.3,1.6,74,0.00,,,0.03,WUHU216HW,2013-08-06 23:46:00,
2013-08-06 19:51:00,86.9,77.7,29.90,NW,315,3.4,3.4,74,0.00,,,0.03,WUHU216HW,2013-08-06 23:51:00,
2013-08-06 19:56:00,86.8,77.5,29.91,NW,315,1.8,3.4,74,0.00,,,0.03,WUHU216HW,2013-08-06 23:56:00,
2013-08-06 20:01:00,86.8,77.5,29.91,NNW,338,0.9,1.8,74,0.00,,,0.03,WUHU216HW,2013-08-07 00:01:00,
2013-08-06 20:06:00,86.8,77.5,29.91,NNW,338,0.4,1.8,74,0.00,,,0.03,WUHU216HW,2013-08-07 00:06:00,
2013-08-06 20:11:00,86.6,77.3,29.90,NNW,338,1.1,2.7,74,0.00,,,0.03,WUHU216HW,2013-08-07 00:11:00,
2013-08-06 20:16:00,86.6,77.3,29.90,North,0,0.9,2.7,74,0.00,,,0.03,WUHU216HW,2013-08-07 00:16:00,
2013-08-06 20:21:00,86.6,77.3,29.90,North,0,0.2,1.1,74,0.00,,,0.03,WUHU216HW,2013-08-07 00:21:00,
2013-08-06 20:26:00,86.6,77.3,29.90,ESE,113,0.0,1.6,74,0.00,,,0.03,WUHU216HW,2013-08-07 00:26:00,
2013-08-06 20:31:00,86.4,77.1,29.90,ESE,113,0.4,1.6,74,0.00,,,0.03,WUHU216HW,2013-08-07 00:31:00,
2013-08-06 20:36:00,86.4,77.6,29.90,ESE,113,0.2,1.1,75,0.00,,,0.03,WUHU216HW,2013-08-07 00:36:00,
2013-08-06 20:41:00,86.0,77.2,29.90,ESE,113,2.0,2.7,75,0.00,,,0.03,WUHU216HW,2013-08-07 00:41:00,
2013-08-06 20:47:00,85.9,77.0,29.90,East,90,1.6,2.7,75,0.00,,,0.03,WUHU216HW,2013-08-07 00:47:00,
2013-08-06 20:52:00,85.7,76.9,29.91,SE,135,2.0,2.0,75,0.00,,,0.03,WUHU216HW,2013-08-07 00:52:00,
2013-08-06 20:57:00,85.5,77.0,29.91,ESE,113,1.8,2.2,76,0.00,,,0.03,WUHU216HW,2013-08-07 00:57:00,
2013-08-06 21:02:00,85.1,76.7,29.91,East,90,0.4,2.2,76,0.00,,,0.03,WUHU216HW,2013-08-07 01:02:00,
2013-08-06 21:07:00,85.0,76.5,29.91,ESE,113,0.4,1.8,76,0.00,,,0.03,WUHU216HW,2013-08-07 01:07:00,
2013-08-06 21:12:00,84.8,76.3,29.91,ESE,113,0.0,0.9,76,0.00,,,0.03,WUHU216HW,2013-08-07 01:12:00,
2013-08-06 21:17:00,84.8,76.3,29.91,ESE,113,0.9,1.1,76,0.00,,,0.03,WUHU216HW,2013-08-07 01:17:00,
2013-08-06 21:22:00,84.8,76.3,29.91,ESE,113,0.0,1.1,76,0.00,,,0.03,WUHU216HW,2013-08-07 01:22:00,
2013-08-06 21:27:00,84.6,76.1,29.91,ESE,113,0.0,0.4,76,0.00,,,0.03,WUHU216HW,2013-08-07 01:27:00,
2013-08-06 21:32:00,84.6,76.1,29.91,ESE,113,0.4,0.4,76,0.00,,,0.03,WUHU216HW,2013-08-07 01:32:00,
2013-08-06 21:37:00,84.6,76.1,29.91,ESE,113,0.2,0.4,76,0.00,,,0.03,WUHU216HW,2013-08-07 01:37:00,
2013-08-06 21:42:00,84.4,76.4,29.91,NE,45,0.4,0.7,77,0.00,,,0.03,WUHU216HW,2013-08-07 01:42:00,
2013-08-06 21:47:00,84.2,76.2,29.91,ESE,113,1.1,1.1,77,0.00,,,0.03,WUHU216HW,2013-08-07 01:47:00,
2013-08-06 21:52:00,84.1,76.1,29.91,East,90,0.7,1.1,77,0.00,,,0.03,WUHU216HW,2013-08-07 01:52:00,
2013-08-06 21:57:00,83.7,75.7,29.92,North,0,0.0,1.6,77,0.00,,,0.03,WUHU216HW,2013-08-07 01:57:00,
2013-08-06 22:03:00,83.5,75.5,29.91,North,0,0.0,1.6,77,0.00,,,0.03,WUHU216HW,2013-08-07 02:03:00,
2013-08-06 22:08:00,83.5,76.0,29.91,ENE,68,0.7,1.3,78,0.00,,,0.03,WUHU216HW,2013-08-07 02:08:00,
2013-08-06 22:13:00,83.5,76.0,29.92,East,90,0.7,1.3,78,0.00,,,0.03,WUHU216HW,2013-08-07 02:13:00,
2013-08-06 22:18:00,83.5,76.0,29.92,ESE,113,0.4,1.1,78,0.00,,,0.03,WUHU216HW,2013-08-07 02:18:00,
2013-08-06 22:24:00,83.5,76.0,29.92,ESE,113,0.2,1.1,78,0.00,,,0.03,WUHU216HW,2013-08-07 02:24:00,
2013-08-06 22:29:00,83.5,76.0,29.92,ESE,113,0.4,1.1,78,0.00,,,0.03,WUHU216HW,2013-08-07 02:29:00,
2013-08-06 22:34:00,83.5,76.0,29.93,ESE,113,0.4,1.3,78,0.00,,,0.03,WUHU216HW,2013-08-07 02:34:00,
2013-08-06 22:39:00,83.3,75.8,29.93,ESE,113,0.4,1.3,78,0.00,,,0.03,WUHU216HW,2013-08-07 02:39:00,
2013-08-06 22:44:00,83.2,75.6,29.93,ESE,113,0.0,1.1,78,0.00,,,0.03,WUHU216HW,2013-08-07 02:44:00,
2013-08-06 22:49:00,83.0,75.9,29.93,East,90,0.4,1.3,79,0.00,,,0.03,WUHU216HW,2013-08-07 02:49:00,
2013-08-06 22:54:00,82.8,75.7,29.93,North,0,2.2,2.2,79,0.00,,,0.03,WUHU216HW,2013-08-07 02:54:00,
2013-08-06 22:59:00,82.8,75.7,29.93,ESE,113,0.4,2.2,79,0.00,,,0.03,WUHU216HW,2013-08-07 02:59:00,
2013-08-06 23:04:00,82.8,75.7,29.93,SE,135,0.7,1.6,79,0.00,,,0.03,WUHU216HW,2013-08-07 03:04:00,
2013-08-06 23:09:00,82.8,75.7,29.93,ESE,113,0.7,0.7,79,0.00,,,0.03,WUHU216HW,2013-08-07 03:09:00,
2013-08-06 23:14:00,82.8,75.7,29.93,ESE,113,0.0,0.7,79,0.00,,,0.03,WUHU216HW,2013-08-07 03:14:00,
2013-08-06 23:15:00,82.8,75.7,29.93,ESE,113,0.0,0.7,79,0.00,,,0.03,WUHU216HW,2013-08-07 03:15:00,
2013-08-06 23:20:00,82.6,75.5,29.92,NNE,23,0.0,0.4,79,0.00,,,0.03,WUHU216HW,2013-08-07 03:20:00,
2013-08-06 23:25:00,82.6,75.5,29.93,NNE,23,0.0,0.4,79,0.00,,,0.03,WUHU216HW,2013-08-07 03:25:00,
2013-08-06 23:30:00,82.6,75.5,29.92,NNE,23,0.7,0.7,79,0.00,,,0.03,WUHU216HW,2013-08-07 03:30:00,
2013-08-06 23:35:00,82.4,75.3,29.92,NNE,23,0.7,1.1,79,0.00,,,0.03,WUHU216HW,2013-08-07 03:35:00,
2013-08-06 23:40:00,82.4,75.3,29.92,North,0,0.9,1.1,79,0.00,,,0.03,WUHU216HW,2013-08-07 03:40:00,
2013-08-06 23:45:00,82.1,75.0,29.92,NNW,338,1.1,1.1,79,0.00,,,0.03,WUHU216HW,2013-08-07 03:45:00,
2013-08-06 23:50:00,82.1,75.0,29.92,North,0,0.2,1.1,79,0.00,,,0.03,WUHU216HW,2013-08-07 03:50:00,
2013-08-06 23:55:00,82.1,75.0,29.92,North,0,0.9,1.1,79,0.00,,,0.03,WUHU216HW,2013-08-07 03:55:00,